Home   Weather   Fagernes   Past weeks

Flag for Norway Past Weather in Fagernes, Norway — Yesterday and Last 2 Weeks

Now
35 °F

Chilly.


Feels Like: 35 °F
Forecast: 25 / 34 °F
Wind: 1 mph from Southwest

Location: Fagernes

Current Time: Dec 10, 2016 at 6:11:30 am

Latest Report: Dec 10, 2016 at 5:00 am


Visibility: N/A

Pressure: 29.72 "Hg

Humidity: 90%

Dew Point: 32 °F

Location of FagernesLocation

Past Weather in Fagernes — Graph

°F

Fagernes Temperature Yesterday

Maximum temperature yesterday: 49 °F (at 1:00 pm)
Minimum temperature yesterday: 36 °F (at 1:00 am)
Average temperature yesterday: 43 °F

High & Low Weather Summary for the Past Weeks

 TemperatureHumidityPressure
High52 °F (Nov 25, 10:00 pm)93% (Dec 3, 11:00 pm)30.52 "Hg (Dec 3, 11:00 pm)
Low16 °F (Dec 7, 4:00 am)34% (Nov 27, 4:00 am)29.50 "Hg (Dec 8, 8:00 am)
Average32 °F71%30.00 "Hg
* Reported Nov 25 4:00 am — Dec 10 4:00 am, Fagernes, Weather by CustomWeather, © 2016

Note: Actual official high and low records may vary slightly from our data, if they occured in-between our weather recording intervals... More about our weather records

Advertising

Fagernes Weather History for the Previous 24 Hours

Scroll right to see more
 ConditionsComfort  
Time TempWeatherWind HumidityBarometerVisibility
4:00 am
Sat, Dec 10
35 °FPassing clouds.No wind90%29.75 "Hg34 mi
2:00 am36 °FChilly.No wind88%29.77 "HgN/A
1:00 am36 °FPassing clouds.No wind88%29.80 "Hg34 mi
12:00 am36 °FChilly.No wind88%29.80 "HgN/A
11:00 pm
Fri, Dec 9
37 °FChilly.No wind79%29.81 "HgN/A
10:00 pm39 °FChilly.1 mph71%29.80 "HgN/A
8:00 pm40 °FQuite cool.1 mph72%29.80 "HgN/A
7:00 pm43 °FPassing clouds.1 mph65%29.80 "Hg34 mi
6:00 pm45 °FCool.1 mph58%29.81 "HgN/A
5:00 pm47 °FCool.1 mph52%29.80 "HgN/A
4:00 pm46 °FPassing clouds.1 mph55%29.80 "Hg34 mi
3:00 pm46 °FCool.1 mph54%29.80 "HgN/A
2:00 pm46 °FCool.1 mph56%29.80 "HgN/A
1:00 pm49 °FScattered clouds.3 mph47%29.77 "Hg34 mi
12:00 pm49 °FCool.5 mph50%29.77 "HgN/A
11:00 am46 °FCool.2 mph55%29.76 "HgN/A
10:00 am46 °FCool.2 mph56%29.74 "HgN/A
9:00 am42 °FQuite cool.No wind55%29.74 "HgN/A
8:00 am42 °FQuite cool.No wind55%29.73 "HgN/A
7:00 am45 °FClear.1 mph49%29.72 "Hg47 mi
6:00 am43 °FQuite cool.1 mph56%29.70 "HgN/A
Weather by CustomWeather, © 2016

See weather overviewHow to use our weather pages